TimeCDT,TemperatureF,Dew PointF,Humidity,Sea Level PressureIn,VisibilityMPH,Wind Direction,Wind SpeedMPH,Gust SpeedMPH,PrecipitationIn,Events,Conditions,WindDirDegrees,DateUTC
12:15 AM,80.6,69.1,68,30.03,10.0,Calm,Calm,-,N/A,,Clear,0,2013-08-23 05:15:00
12:35 AM,80.8,69.1,67,30.03,10.0,Calm,Calm,-,N/A,,Clear,0,2013-08-23 05:35:00
12:55 AM,79.7,70.0,72,30.03,10.0,SE,3.5,-,N/A,,Clear,130,2013-08-23 05:55:00
1:15 AM,79.2,70.5,75,30.03,10.0,Calm,Calm,-,N/A,,Scattered Clouds,0,2013-08-23 06:15:00
1:35 AM,79.7,70.0,72,30.03,10.0,Calm,Calm,-,N/A,,Scattered Clouds,0,2013-08-23 06:35:00
1:55 AM,79.5,70.3,73,30.03,10.0,SE,3.5,-,N/A,,Scattered Clouds,130,2013-08-23 06:55:00
2:15 AM,81.0,68.9,67,30.02,10.0,SSE,4.6,-,N/A,,Clear,150,2013-08-23 07:15:00
2:35 AM,80.4,68.7,67,30.02,10.0,SE,4.6,-,N/A,,Clear,140,2013-08-23 07:35:00
2:55 AM,80.2,68.2,67,30.01,10.0,Calm,Calm,-,N/A,,Clear,0,2013-08-23 07:55:00
3:15 AM,80.8,67.5,64,30.02,10.0,SSE,5.8,-,N/A,,Clear,160,2013-08-23 08:15:00
3:35 AM,80.6,67.6,65,30.02,10.0,SE,3.5,-,N/A,,Scattered Clouds,140,2013-08-23 08:35:00
3:55 AM,78.8,68.7,71,30.03,10.0,Calm,Calm,-,N/A,,Clear,0,2013-08-23 08:55:00
4:15 AM,78.8,68.9,72,30.03,10.0,Calm,Calm,-,N/A,,Clear,0,2013-08-23 09:15:00
4:35 AM,77.0,69.6,78,30.03,10.0,SE,3.5,-,N/A,,Clear,130,2013-08-23 09:35:00
4:55 AM,77.7,69.1,75,30.03,10.0,Calm,Calm,-,N/A,,Clear,0,2013-08-23 09:55:00
5:15 AM,78.3,68.5,72,30.03,10.0,Calm,Calm,-,N/A,,Clear,0,2013-08-23 10:15:00
5:35 AM,77.4,68.4,74,30.03,10.0,Calm,Calm,-,N/A,,Clear,0,2013-08-23 10:35:00
5:55 AM,78.8,68.0,69,30.03,10.0,Calm,Calm,-,N/A,,Clear,0,2013-08-23 10:55:00
6:15 AM,78.1,68.4,72,30.04,10.0,Calm,Calm,-,N/A,,Clear,0,2013-08-23 11:15:00
6:35 AM,78.1,68.4,72,30.04,10.0,Calm,Calm,-,N/A,,Clear,0,2013-08-23 11:35:00
6:55 AM,76.5,68.2,75,30.04,10.0,Calm,Calm,-,N/A,,Clear,0,2013-08-23 11:55:00
7:15 AM,77.2,68.5,75,30.05,10.0,Calm,Calm,-,N/A,,Clear,0,2013-08-23 12:15:00
7:35 AM,77.0,68.4,75,30.05,10.0,Calm,Calm,-,N/A,,Clear,0,2013-08-23 12:35:00
7:55 AM,77.9,70.2,77,30.05,10.0,Calm,Calm,-,N/A,,Clear,0,2013-08-23 12:55:00
8:15 AM,79.5,70.0,72,30.06,10.0,SSW,3.5,-,N/A,,Clear,200,2013-08-23 13:15:00
8:35 AM,81.7,69.1,65,30.06,10.0,SSW,5.8,-,N/A,,Clear,210,2013-08-23 13:35:00
8:55 AM,83.3,69.1,62,30.07,10.0,SW,3.5,-,N/A,,Clear,220,2013-08-23 13:55:00
9:15 AM,84.6,69.4,60,30.06,10.0,WSW,4.6,-,N/A,,Clear,240,2013-08-23 14:15:00
9:35 AM,86.5,70.0,58,30.06,10.0,WSW,3.5,-,N/A,,Clear,250,2013-08-23 14:35:00
9:55 AM,87.4,69.6,55,30.06,10.0,WNW,3.5,-,N/A,,Clear,300,2013-08-23 14:55:00
10:15 AM,88.2,69.6,54,30.06,10.0,WNW,5.8,-,N/A,,Clear,290,2013-08-23 15:15:00
10:35 AM,89.1,69.4,52,30.06,10.0,West,5.8,-,N/A,,Clear,280,2013-08-23 15:35:00
10:55 AM,89.6,68.9,50,30.06,7.0,WNW,3.5,-,N/A,,Clear,300,2013-08-23 15:55:00
11:15 AM,91.4,68.7,47,30.06,10.0,North,4.6,-,N/A,,Clear,350,2013-08-23 16:15:00
11:35 AM,91.8,68.2,46,30.06,10.0,North,4.6,-,N/A,,Clear,350,2013-08-23 16:35:00
11:55 AM,92.7,66.9,43,30.05,10.0,North,3.5,-,N/A,,Clear,350,2013-08-23 16:55:00
12:15 PM,91.8,66.7,44,30.04,10.0,Calm,Calm,-,N/A,,Clear,0,2013-08-23 17:15:00
12:55 PM,94.1,66.9,41,30.03,10.0,NNW,5.8,-,N/A,,Scattered Clouds,340,2013-08-23 17:55:00
1:15 PM,93.6,66.6,41,30.03,10.0,NW,4.6,-,N/A,,Scattered Clouds,310,2013-08-23 18:15:00
1:35 PM,95.2,65.1,37,30.02,10.0,East,3.5,-,N/A,,Clear,100,2013-08-23 18:35:00
1:55 PM,97.3,62.2,31,30.01,10.0,Calm,Calm,-,N/A,,Clear,0,2013-08-23 18:55:00
2:15 PM,97.7,60.8,29,30.01,10.0,ENE,4.6,-,N/A,,Clear,60,2013-08-23 19:15:00
2:35 PM,97.2,61.9,31,30.00,10.0,East,5.8,-,N/A,,Scattered Clouds,80,2013-08-23 19:35:00
2:55 PM,97.5,62.2,31,29.98,10.0,SE,8.1,-,N/A,,Scattered Clouds,130,2013-08-23 19:55:00
3:15 PM,98.1,61.3,30,29.97,10.0,ENE,4.6,-,N/A,,Clear,60,2013-08-23 20:15:00
3:35 PM,98.8,61.0,29,29.97,10.0,ESE,8.1,-,N/A,,Clear,120,2013-08-23 20:35:00
3:55 PM,99.1,61.0,28,29.96,10.0,East,9.2,-,N/A,,Scattered Clouds,100,2013-08-23 20:55:00
4:15 PM,99.0,60.1,28,29.96,10.0,ESE,8.1,-,N/A,,Scattered Clouds,110,2013-08-23 21:15:00
4:35 PM,99.3,58.8,26,29.95,10.0,SE,5.8,9.2,N/A,,Clear,130,2013-08-23 21:35:00
4:55 PM,97.0,58.1,27,29.96,10.0,ENE,9.2,-,N/A,Thunderstorm,Clear,70,2013-08-23 21:55:00
5:15 PM,90.3,66.7,46,29.96,10.0,North,10.4,-,N/A,Thunderstorm,Clear,360,2013-08-23 22:15:00
5:35 PM,90.0,63.5,41,29.96,10.0,North,13.8,-,N/A,,Clear,350,2013-08-23 22:35:00
5:55 PM,89.8,63.7,42,29.95,10.0,North,5.8,-,N/A,,Clear,10,2013-08-23 22:55:00
6:15 PM,89.6,63.5,42,29.95,10.0,NNE,3.5,-,N/A,,Clear,20,2013-08-23 23:15:00
6:35 PM,89.1,63.7,43,29.95,10.0,NNE,4.6,-,N/A,,Clear,30,2013-08-23 23:35:00
6:55 PM,88.7,64.4,44,29.94,10.0,NNE,5.8,-,N/A,,Clear,20,2013-08-23 23:55:00
7:15 PM,88.9,63.7,43,29.94,10.0,NNE,11.5,16.1,N/A,,Clear,30,2013-08-24 00:15:00
7:35 PM,88.2,64.8,46,29.94,10.0,NE,4.6,-,N/A,,Clear,50,2013-08-24 00:35:00
7:55 PM,87.1,64.9,48,29.94,10.0,NE,5.8,-,N/A,,Clear,40,2013-08-24 00:55:00
8:15 PM,86.0,65.5,50,29.95,10.0,NE,4.6,-,N/A,,Clear,50,2013-08-24 01:15:00
8:35 PM,85.1,65.7,52,29.96,10.0,ENE,4.6,-,N/A,,Clear,60,2013-08-24 01:35:00
8:55 PM,85.6,65.3,50,29.97,10.0,ENE,5.8,-,N/A,,Clear,60,2013-08-24 01:55:00
9:15 PM,85.5,64.9,50,29.98,4.0,ENE,4.6,-,N/A,,Haze,60,2013-08-24 02:15:00
9:35 PM,84.4,65.3,53,29.99,10.0,ENE,5.8,-,N/A,,Clear,70,2013-08-24 02:35:00
9:55 PM,84.4,65.3,53,30.00,7.0,NE,4.6,-,N/A,,Clear,50,2013-08-24 02:55:00
10:15 PM,83.8,65.3,53,30.01,4.0,Calm,Calm,-,N/A,,Haze,0,2013-08-24 03:15:00
10:35 PM,83.3,65.5,55,30.01,3.0,Calm,Calm,-,N/A,,Haze,0,2013-08-24 03:35:00
10:55 PM,82.8,65.7,56,30.01,10.0,Calm,Calm,-,N/A,,Clear,0,2013-08-24 03:55:00
11:15 PM,81.7,65.7,58,30.01,10.0,East,3.5,-,N/A,,Clear,90,2013-08-24 04:15:00
11:35 PM,80.8,66.2,61,30.01,10.0,East,5.8,-,N/A,,Clear,90,2013-08-24 04:35:00
11:55 PM,80.2,66.4,63,30.02,10.0,East,6.9,-,N/A,,Clear,100,2013-08-24 04:55:00